TimeMST,TemperatureF,Dew PointF,Humidity,Sea Level PressureIn,VisibilityMPH,Wind Direction,Wind SpeedMPH,Gust SpeedMPH,PrecipitationIn,Events,Conditions,WindDirDegrees,DateUTC
12:58 AM,69.4,39.6,34,29.88,10.0,WNW,1.2,-,N/A,,Clear,300,2013-04-01 07:58:00
1:58 AM,67.1,39.0,36,29.88,10.0,Calm,Calm,-,N/A,,Clear,0,2013-04-01 08:58:00
2:58 AM,63.1,40.5,43,29.88,10.0,SSW,5.8,-,N/A,,Clear,210,2013-04-01 09:58:00
3:58 AM,61.2,41.0,47,29.89,10.0,SSW,4.6,-,N/A,,Clear,210,2013-04-01 10:58:00
4:58 AM,59.5,40.6,50,29.91,10.0,SSW,4.6,-,N/A,,Clear,210,2013-04-01 11:58:00
5:58 AM,61.0,39.6,45,29.91,10.0,SSW,5.8,-,N/A,,Clear,210,2013-04-01 12:58:00
6:58 AM,62.4,38.7,41,29.94,10.0,SW,8.1,-,N/A,,Partly Cloudy,220,2013-04-01 13:58:00
7:58 AM,66.6,38.5,36,29.95,10.0,SSW,10.4,-,N/A,,Clear,210,2013-04-01 14:58:00
8:58 AM,69.8,37.2,30,29.96,10.0,SW,10.4,-,N/A,,Partly Cloudy,230,2013-04-01 15:58:00
9:58 AM,72.9,36.5,27,29.96,10.0,SSW,12.7,-,N/A,,Clear,210,2013-04-01 16:58:00
10:58 AM,75.6,34.3,22,29.96,10.0,SW,13.8,-,N/A,,Clear,220,2013-04-01 17:58:00
11:58 AM,77.7,32.0,19,29.95,10.0,South,12.7,19.6,N/A,,Clear,170,2013-04-01 18:58:00
12:58 PM,78.8,32.4,18,29.92,10.0,SW,9.2,17.3,N/A,,Clear,220,2013-04-01 19:58:00
1:09 PM,78.8,32.0,18,29.94,10.0,SW,12.7,19.6,N/A,,Clear,230,2013-04-01 20:09:00
1:58 PM,80.2,34.5,19,29.90,10.0,SW,11.5,-,N/A,,Clear,220,2013-04-01 20:58:00
2:58 PM,82.0,30.2,15,29.88,10.0,SW,12.7,17.3,N/A,,Clear,220,2013-04-01 21:58:00
3:02 PM,82.4,30.2,15,29.89,10.0,WSW,13.8,18.4,N/A,,Clear,250,2013-04-01 22:02:00
3:58 PM,81.3,31.6,17,29.86,10.0,SW,15.0,-,N/A,,Clear,220,2013-04-01 22:58:00
4:21 PM,82.4,32.0,16,29.87,10.0,WSW,11.5,-,N/A,,Clear,240,2013-04-01 23:21:00
4:58 PM,82.4,32.0,16,29.84,10.0,SW,15.0,-,0.00,,Clear,230,2013-04-01 23:58:00
5:58 PM,81.0,26.1,13,29.84,10.0,SW,15.0,-,0.00,,Clear,220,2013-04-02 00:58:00
6:58 PM,77.5,27.1,16,29.85,10.0,SSW,6.9,-,N/A,,Clear,210,2013-04-02 01:58:00
7:58 PM,74.1,29.8,20,29.85,10.0,SSW,8.1,-,N/A,,Clear,200,2013-04-02 02:58:00
8:58 PM,69.8,35.6,28,29.86,10.0,WNW,10.4,-,0.00,,Clear,300,2013-04-02 03:58:00
9:58 PM,68.7,30.2,24,29.87,10.0,WNW,8.1,-,N/A,,Clear,290,2013-04-02 04:58:00
10:58 PM,65.8,27.5,24,29.86,10.0,West,8.1,-,N/A,,Clear,280,2013-04-02 05:58:00
11:58 PM,63.5,26.8,25,29.86,10.0,North,1.2,-,N/A,,Clear,350,2013-04-02 06:58:00